Content
SEND FEEDBACK

Daily
Averages
Monthly
Summary
United States of America

WILMINGTON, NORTH CAROLINA


Home > North America > United States > North Carolina
Elevation: 72 feet     Latitude: 34 16N     Longitude: 077 54W

WEATHER
 
SELECT A DAY
Number of Records: 206,751;   Date Range: 1/1/95 - 4/23/14
 
SHARE

PRINT THIS DATA

[ ← Previous Day ]
WEATHER ALMANAC - APRIL 27, 2013
[ Next Day → ]
[ °C ]   °F
Weather ElementAverageHighLow
Temperature61.8 °F71.1 °F (12:53 pm)51.1 °F (2:53 am)
Dewpoint44.2 °F51.1 °F (7:53 am)33.1 °F (2:53 pm)
Humidity57.6 %93 % (5:53 am)26 % (2:53 pm)
Barometer30.33 in30.38 in (8:53 am)30.28 in (11:53 pm)
Wind Speed7 mph13.8 mph (2:53 pm)
Wind Gust20.7 mph (2:53 pm)
Weather ElementAverage
Visibility10 mi
Wind DirectionENE (62.6 °)

Weather ElementTotal
Precipitation---
Heating Degree Days3.9 (Base 65)
Growing Degree Days11.1 (Base 50)
Averaged from 23 records on April 27, 2013
WEATHER CONDITIONS BREAKOUT
WIND DIRECTION BREAKOUT
WEATHER BY HOUR - APRIL 27, 2013
[ °C ]   °F
Local TimeTemperatureDewpointHumidityBarometerVisibilityWind DirectionWind SpeedGust SpeedPrecipitationEventsConditions
1:53 AM53.1 °F50.0 °F89 %30.36 in10.0 miCalmClear
2:53 AM51.1 °F48.0 °F89 %30.35 in10.0 miCalmClear
3:53 AM51.1 °F48.0 °F89 %30.35 in10.0 miNNE (20°)3.5 mphClear
4:53 AM53.1 °F50.0 °F89 %30.34 in10.0 miCalmClear
5:53 AM52.0 °F50.0 °F93 %30.33 in10.0 miNE (50°)4.6 mphClear
6:53 AM53.1 °F50.0 °F89 %30.35 in10.0 miNNE (20°)4.6 mphClear
7:53 AM55.0 °F51.1 °F86 %30.35 in10.0 miNE (40°)5.8 mphOvercast
8:53 AM59.0 °F50.0 °F72 %30.38 in10.0 miNE (40°)3.5 mphMostly Cloudy
9:53 AM66.9 °F45.0 °F45 %30.37 in10.0 miVariable6.9 mphClear
10:53 AM69.1 °F42.1 °F38 %30.37 in10.0 miEast (100°)9.2 mphClear
11:53 AM70.0 °F39.9 °F33 %30.36 in10.0 miEast (100°)10.4 mphClear
12:53 PM71.1 °F41.0 °F34 %30.34 in10.0 miEast (100°)11.5 mphClear
1:53 PM70.0 °F39.0 °F32 %30.32 in10.0 miEast (80°)11.5 mph19.6 mphClear
2:53 PM70.0 °F33.1 °F26 %30.32 in10.0 miEast (80°)13.8 mph20.7 mphClear
3:53 PM70.0 °F34.0 °F27 %30.31 in10.0 miEast (100°)9.2 mph20.7 mphClear
4:53 PM69.1 °F34.0 °F27 %30.31 in10.0 miEast (100°)13.8 mphClear
5:53 PM64.9 °F43.0 °F45 %30.30 in10.0 miEast (100°)8.1 mphClear
6:53 PM64.0 °F43.0 °F46 %30.30 in10.0 miEast (100°)6.9 mphScattered Clouds
7:53 PM63.0 °F42.1 °F46 %30.31 in10.0 miEast (100°)6.9 mphMostly Cloudy
8:53 PM62.1 °F42.1 °F48 %30.29 in10.0 miEast (80°)6.9 mphClear
9:53 PM62.1 °F44.1 °F52 %30.29 in10.0 miEast (80°)6.9 mphMostly Cloudy
10:53 PM61.0 °F48.0 °F62 %30.30 in10.0 miEast (80°)9.2 mphMostly Cloudy
11:53 PM61.0 °F50.0 °F67 %30.28 in10.0 miENE (70°)6.9 mphOvercast
Hourly data recorded from KILM, located 0.61 miles away from Wilmington, North Carolina







STORIES FROM OUR PARTNERS